Theta_e
338 336 343 348 348 348 349 349 349 350 351 351 350 350 349 350 350 350 350 349 347 348 348 347 346 345 345 346 347 346 346 345 343 342 341 341 341 341 343 343 342 344 345
339 340 337 336 337 335 333 340 348 349 351 350 351 351 350 349 349 349 349 350 349 348 348 346 346 346 346 346 345 345 344 343 342 339 341 341 341 343 343 343 343 343 344
340 340 337 335 337 333 334 335 338 345 349 350 351 351 351 350 348 348 349 349 348 347 346 347 345 346 346 346 346 344 344 343 342 340 340 340 341 343 343 343 342 341 340
342 338 334 335 332 333 335 335 334 339 345 346 346 347 348 348 349 347 348 349 347 347 348 345 345 345 344 344 345 345 344 344 342 341 340 340 342 342 343 342 341 340 341
339 338 336 335 336 334 332 332 334 342 339 339 342 345 344 345 347 347 346 347 347 349 348 346 346 345 344 344 344 344 344 344 343 343 340 341 341 340 341 341 339 338 338
344 344 341 338 336 335 334 333 338 341 341 339 335 334 335 338 346 347 346 346 348 348 347 346 345 346 345 345 344 344 342 343 343 341 341 339 340 340 340 338 338 336 334
342 340 340 340 340 339 337 335 336 338 339 335 335 335 335 336 338 345 345 344 347 347 346 345 345 345 345 345 345 344 343 343 344 343 341 341 340 341 342 339 337 335 335
341 340 339 338 338 338 339 338 338 339 338 337 338 337 339 333 335 343 344 344 344 346 346 346 346 346 345 345 343 343 343 343 344 344 343 342 341 340 341 341 341 337 335
336 339 340 340 339 337 335 335 336 337 337 337 338 340 341 338 341 343 341 342 342 344 345 345 345 344 345 345 345 344 344 343 342 342 342 342 342 340 340 340 339 334 334
331 333 336 338 339 340 339 336 336 336 338 337 340 341 342 342 342 341 342 340 340 340 340 342 344 344 344 345 345 344 344 343 342 342 342 341 341 339 340 340 339 335 334
333 331 331 333 335 337 339 339 339 339 339 339 338 340 341 342 340 340 340 340 340 339 340 339 342 344 344 342 341 342 343 341 340 340 342 342 341 338 337 337 336 337 336
326 327 332 331 332 333 336 336 338 339 338 338 338 339 339 339 339 339 339 338 338 340 341 342 343 342 337 337 338 340 342 343 342 341 342 341 340 340 339 338 337 336 337
325 325 327 331 326 331 330 331 334 334 335 335 334 335 334 333 334 332 332 332 333 334 335 337 340 341 342 343 343 343 342 341 342 340 339 340 342 342 340 339 339 338 339
324 323 324 324 324 325 331 331 330 330 330 329 329 329 330 332 330 327 325 324 324 324 325 328 331 333 336 338 338 341 341 342 342 340 339 340 339 338 338 338 336 337 338
322 322 322 323 324 323 322 323 329 330 331 329 329 328 327 326 326 326 325 324 323 324 324 324 324 324 326 330 333 336 338 339 338 338 337 337 338 338 337 335 336 335 335
322 321 320 321 322 323 322 321 328 330 331 331 330 329 328 327 326 324 323 323 321 321 322 321 321 320 321 323 327 330 333 335 336 336 335 334 336 337 336 335 334 334 334
321 320 321 322 322 322 322 321 321 330 331 330 330 329 328 327 326 324 323 322 321 321 320 320 319 320 320 321 321 327 329 331 333 334 334 333 334 335 336 335 334 333 334
320 320 321 324 324 325 325 324 322 321 321 323 329 329 328 327 325 323 320 319 320 320 319 320 320 320 321 321 322 324 325 328 330 331 331 331 332 333 334 334 334 334 333
318 319 321 323 324 325 327 328 326 322 321 322 327 328 327 325 323 322 320 320 320 319 319 319 320 321 322 322 323 325 326 328 329 330 331 332 332 332 333 333 333 333 333
320 318 318 321 322 322 325 326 327 328 328 327 327 327 326 324 322 321 320 320 320 319 319 320 321 321 322 322 323 326 327 328 330 330 331 332 333 334 334 334 333 333 333
320 319 316 316 316 320 321 325 326 325 324 326 326 325 323 323 321 320 318 319 318 318 318 320 320 320 321 321 321 322 324 327 329 330 331 332 332 333 333 334 334 333 333
321 320 314 313 313 315 316 319 324 323 322 324 325 325 324 323 321 319 318 318 318 318 319 321 319 319 321 321 321 321 321 321 324 327 329 330 331 332 332 332 333 333 333
320 317 315 314 313 313 314 316 319 323 322 322 324 324 322 321 319 318 318 319 318 319 320 319 319 318 319 320 321 320 321 322 321 322 325 328 330 330 330 330 331 330 331
319 317 315 313 313 313 313 314 317 319 322 322 322 322 323 321 320 319 318 318 319 320 320 319 319 319 318 317 317 318 320 320 321 322 322 322 321 322 323 326 328 329 328
317 315 312 312 312 312 312 313 315 318 318 321 321 321 320 321 321 320 320 319 319 319 320 320 318 318 319 318 318 317 317 318 320 321 321 321 322 321 321 320 319 318 317
315 313 312 316 316 315 315 314 314 315 317 317 321 321 318 318 319 321 321 319 317 317 319 318 317 317 319 319 318 318 318 317 318 318 319 320 319 318 320 319 319 319 319
Wind_Speed
26 16 11 11 14 13 18 20 29 33 34 35 33 32 32 31 30 28 29 26 25 25 25 25 24 21 19 18 18 17 18 19 9 8 11 11 12 12 12 13 13 14 13
5 10 25 19 24 15 12 2 12 23 31 32 33 33 31 31 28 28 28 26 25 25 25 23 24 21 18 17 16 19 18 16 17 9 13 15 12 12 11 10 11 11 13
12 30 20 7 7 13 16 5 6 17 23 26 29 32 28 26 26 29 27 27 25 25 25 25 25 22 20 18 17 18 19 16 16 17 13 8 10 11 11 11 10 9 10
35 38 31 25 22 17 16 18 8 25 23 18 16 15 16 19 22 24 26 26 26 26 26 25 24 24 21 21 18 19 19 18 15 15 14 16 10 10 13 13 11 13 13
31 16 20 26 29 24 19 18 18 22 23 23 23 31 19 17 16 22 24 27 27 28 26 26 26 26 23 22 20 19 19 19 16 13 11 10 12 9 14 14 16 14 14
2 4 3 9 17 14 17 18 22 26 26 26 25 22 23 21 14 22 28 28 29 28 28 28 26 26 27 25 24 20 17 19 21 19 16 14 19 16 17 21 19 12 3
10 5 5 6 5 9 16 25 27 30 26 21 21 18 17 17 20 26 27 28 27 28 28 29 29 27 26 25 24 24 22 21 22 23 22 23 23 23 20 18 19 17 15
15 13 7 1 4 9 12 15 19 22 26 25 23 26 26 30 26 26 24 22 24 27 26 24 27 30 29 25 24 23 23 24 23 24 26 25 22 18 19 22 22 21 19
14 13 10 6 4 5 7 9 11 13 16 22 21 25 28 29 23 17 15 15 19 21 20 20 23 25 26 26 25 24 23 24 22 24 26 24 22 18 17 18 17 13 8
11 10 8 11 10 7 7 11 8 12 13 19 16 19 18 16 15 14 16 17 19 18 20 18 23 25 25 22 20 22 25 26 22 22 25 26 24 23 21 22 22 17 12
10 12 15 12 11 9 8 6 6 4 2 1 2 1 5 12 13 15 13 14 17 18 27 23 20 23 22 20 20 23 28 25 22 24 26 25 25 26 27 28 28 29 24
16 14 12 14 14 14 9 7 7 6 5 4 2 4 6 7 7 14 15 18 20 17 19 18 15 17 18 18 21 20 21 24 22 23 26 27 29 29 30 29 29 29 31
19 20 17 12 14 12 12 8 10 10 10 9 10 10 9 8 8 6 7 4 3 5 10 15 18 20 18 22 22 20 19 17 18 18 22 27 32 32 33 30 29 29 29
16 16 17 14 13 12 8 7 8 7 8 8 7 6 5 4 3 4 5 5 7 10 11 14 14 14 18 24 25 26 23 20 21 21 23 25 25 26 29 32 27 30 28
14 15 16 14 10 11 10 9 2 2 3 3 3 3 3 4 5 7 11 13 14 14 16 17 19 20 22 23 23 25 25 23 25 27 23 21 23 25 28 28 27 23 23
16 17 18 16 13 11 11 12 2 3 0 3 3 2 0 1 3 9 12 13 15 15 12 14 17 15 15 17 19 24 26 25 27 28 26 24 21 22 22 23 26 27 25
11 15 18 16 12 10 8 7 6 2 5 7 7 7 5 4 4 8 11 10 11 12 11 14 15 18 18 19 18 18 21 25 28 26 27 26 23 23 24 22 25 26 26
10 14 17 15 12 13 12 7 6 7 7 7 8 10 9 8 5 8 6 5 9 11 13 14 16 18 21 21 20 20 21 20 20 23 24 24 24 24 23 24 26 26 27
10 12 13 12 10 9 9 10 7 4 9 8 6 4 7 8 5 4 5 6 8 11 13 15 17 17 18 20 23 22 22 22 22 22 22 24 25 24 25 27 27 30 31
9 10 13 10 11 13 10 9 8 7 5 3 5 5 6 6 5 6 7 8 9 10 12 14 15 15 17 19 20 21 23 23 23 23 24 25 25 26 26 25 26 26 28
10 10 12 11 12 11 12 9 8 7 9 10 8 7 7 7 7 7 10 10 9 9 10 12 12 14 17 18 18 19 19 20 21 21 21 23 23 23 24 25 25 27 26
11 12 13 13 12 14 16 12 12 10 10 10 11 9 10 11 10 9 11 12 11 11 10 11 12 12 14 14 15 16 15 16 18 22 22 23 25 26 24 26 26 24 26
8 11 14 16 17 17 19 17 15 15 14 13 13 14 13 13 12 10 11 10 12 11 10 9 10 11 11 11 12 13 18 17 14 12 16 22 23 23 24 26 25 22 25
10 13 16 20 21 21 18 22 18 18 20 18 15 16 18 16 15 13 13 13 13 12 12 11 11 11 10 10 11 11 13 15 14 12 11 10 8 5 4 11 18 24 25
14 15 18 22 22 21 22 25 20 21 21 23 22 19 18 17 19 17 15 14 16 17 16 15 14 13 13 12 12 11 11 11 12 11 10 10 12 14 13 15 19 20 17
16 16 16 17 19 20 21 23 20 20 25 24 28 25 21 18 20 19 18 16 16 18 20 16 15 13 11 10 11 11 9 9 8 9 8 7 7 10 12 19 21 20 24
Wind_Direction
220 203 269 189 178 198 212 223 229 230 237 236 237 237 237 238 239 235 233 234 238 243 240 239 240 243 250 251 250 246 242 234 241 267 254 248 264 266 248 251 247 245 233
225 148 83 93 75 27 20 68 223 239 240 237 232 235 238 237 238 235 230 229 230 234 239 238 240 237 240 241 246 247 240 239 236 242 261 264 270 269 251 243 245 240 232
221 143 150 168 110 357 266 24 294 247 235 236 235 233 233 235 241 232 227 227 228 229 235 240 238 234 234 236 239 249 251 247 243 243 252 266 263 257 240 237 236 234 239
153 145 157 176 149 201 212 223 227 252 233 229 243 228 225 226 230 235 226 225 227 229 233 241 241 239 238 235 231 244 252 252 243 242 252 258 255 254 228 218 221 234 237
149 161 189 172 165 179 207 203 210 234 241 248 248 231 223 230 224 235 232 224 228 232 236 240 243 245 241 240 235 232 244 246 241 228 237 243 233 225 222 226 230 242 240
199 308 9 155 151 185 207 206 211 235 245 243 234 227 218 244 250 249 240 232 231 232 235 242 243 248 248 246 246 240 235 242 247 235 235 229 239 227 221 220 223 212 239
62 64 69 76 141 206 210 209 227 232 241 229 241 247 256 262 251 251 240 244 240 239 239 241 245 248 247 246 246 249 245 245 249 254 248 250 250 251 240 228 223 222 225
63 51 39 21 213 212 215 221 232 239 245 236 253 255 257 243 253 246 241 243 246 246 246 251 255 254 248 247 246 244 249 247 249 246 248 255 261 266 255 250 249 236 239
59 66 72 105 187 205 215 225 230 232 238 228 242 246 241 237 232 234 238 252 248 245 249 252 254 261 256 246 243 245 248 255 256 258 254 256 253 258 251 245 234 208 228
29 33 54 75 74 88 193 212 209 235 239 241 237 222 216 209 196 215 227 237 253 276 282 266 257 257 252 241 244 248 250 251 257 255 250 251 248 244 241 235 239 206 210
35 43 44 47 52 64 93 147 200 194 186 79 74 19 174 180 185 216 223 253 248 243 251 256 256 253 248 244 244 251 250 259 263 265 259 258 246 237 232 236 234 235 219
52 47 44 44 50 56 58 76 108 132 141 134 146 86 106 142 214 229 249 256 255 258 263 268 259 256 256 254 250 258 262 255 251 258 257 252 241 233 234 234 237 234 239
45 39 44 38 33 43 44 42 80 91 98 93 87 92 100 94 96 63 56 29 3 317 282 271 266 267 263 254 259 263 255 250 246 232 245 247 248 250 243 237 238 237 235
45 38 33 27 26 32 32 3 47 74 83 79 80 89 102 114 53 1 350 336 322 311 296 289 285 276 266 265 261 255 252 252 243 244 238 251 255 252 244 239 228 228 226
36 30 26 30 32 34 18 351 250 88 34 50 75 89 91 74 38 4 348 342 339 326 316 307 300 291 285 278 276 267 261 255 249 248 242 240 242 240 236 231 222 214 210
26 22 18 20 27 25 9 11 128 188 231 283 277 283 340 78 9 343 342 346 347 344 325 314 312 305 293 283 276 270 267 257 253 250 244 238 233 228 226 230 222 219 213
24 19 18 18 16 16 4 3 359 274 262 260 254 245 237 243 298 324 334 347 353 345 334 323 312 308 293 286 278 266 261 260 258 252 248 241 230 227 225 225 225 224 218
19 23 21 32 44 20 6 340 259 254 258 258 240 241 230 229 273 308 345 9 346 349 335 328 322 315 303 292 283 274 273 270 261 253 247 241 237 235 230 223 221 228 224
22 26 24 35 37 18 28 34 19 288 258 255 233 249 215 221 273 310 327 328 327 332 332 331 328 317 304 297 285 277 271 265 257 253 249 248 245 237 229 228 223 223 225
22 26 25 10 4 359 359 13 28 29 358 300 278 264 222 237 265 298 302 304 308 317 323 328 330 334 328 317 305 280 272 267 258 251 248 248 245 240 237 229 226 223 221
2 3 3 1 2 343 340 331 336 333 322 305 285 267 256 261 278 288 298 289 289 298 312 316 326 337 350 340 331 323 305 288 274 267 263 258 254 240 243 243 232 223 212
336 345 348 338 329 344 322 300 286 292 303 296 290 276 271 273 270 276 287 284 280 279 289 300 319 341 358 9 6 354 340 326 302 277 266 262 257 250 245 239 233 225 216
306 322 329 331 323 317 321 318 273 269 273 273 270 267 265 271 271 264 268 266 281 273 279 294 315 335 346 355 2 15 15 15 4 334 290 270 258 250 250 245 231 220 214
300 309 319 319 318 313 305 317 287 268 263 266 268 266 263 265 267 272 283 272 273 271 267 275 292 307 320 341 355 358 10 9 8 25 44 54 61 87 189 231 232 220 207
308 319 323 321 316 305 308 312 295 268 268 261 260 261 264 266 268 265 270 279 271 263 268 276 282 292 293 304 321 338 1 0 2 15 29 54 64 48 73 84 80 74 97
311 312 316 323 321 314 312 313 295 279 264 264 257 254 261 267 276 274 270 272 286 270 264 275 275 283 284 290 306 313 322 341 360 14 4 12 45 51 67 82 85 82 85